Location: ????????
(55.5667°N, 37.5833°E)
Time: 06:53:57
(UTC+00:00)

Cosmos 2082 Rocket - Pass Details

Date: 14 April 2026
Orbit: 831 x 853 km, 71.0° (Epoch: 13 May)

Event Time Altitude Azimuth Distance (km) Brightness Sun altitude
Exits shadow 23:18:19 19° 150° (SSE) 1,915 3.8 -20.9°
Maximum altitude 23:21:13 30° 106° (ESE) 1,504 3.6 -20.7°
Drops below altitude 10° 23:26:05 10° 48° (NE) 2,495 5.7 -20.4°
Sets 23:28:49 0° 38° (NE) 3,435 7.0 -20.2°
